View from above orbital plane
|
View from above satellite
|
Ground track
|
The orbit data is extracted from the following two-line orbital elements,
1 13770U 83003A 13140.51422866 .00007952 00000-0 32277-3 0 2849
2 13770 081.1670 140.2799 0013851 021.5273 124.6156 15.24379118657647
| Epoch (UTC): | 20 May 2013 12:20:29 |
| Eccentricity: | 0.0013851 |
| inclination: | 81.1670° |
| perigee height: | 483 km |
| apogee height: | 502 km |
| right ascension of ascending node: | 140.2799° |
| argument of perigee: | 21.5273° |
| revolutions per day: | 15.24379118 |
| mean anomaly at epoch: | 124.6156° |
| orbit number at epoch: | 65764 |
The dashed part of the orbit path shows where the satellite is in the earth's shadow,
|
|